Starlink 34353

operational
NORAD ID: 64278 Int'l Des: 2025-120 Owner: SPXS Country: US Constellation: starlink
LEOCIRCULAR

Über Starlink 34353

Beschreibung wird geladen...

Live-Position

3D-Globus wird geladen...

Nächste Überflüge

Höhenverlauf

Altitude vs Time

uPlot chart will show altitude changes over time

Zweizeiliger Elementsatz

1 64278U 25120Y 26061.64009233 .00024026 00000-0 82046-3 0 9996
2 64278 53.1610 149.6599 0001202 100.2886 259.8251 15.30208942 42831
Epoch: 2. März 2026 • Age: 35 hours

Aktueller Status

Höhe 482.4 km
Geschwindigkeit 7.62 km/s
Subsatellitenpunkt -24.34°S, 17.95°E
Startdatum 4. Juni 2025
Alter 0.7 years
Typ internet

Technische Details

Klassifizierung Payload
Masse 575.00 kg
Trockenmasse 530.00 kg
Gesamtmasse 575.00 kg
Länge 0.30 m
Durchmesser 4.10 m
Spannweite 29.00 m
Form Box + pan
Hersteller SPXS
Bus-Typ Starlink V2MO
Phasenstatus In Orbit
Besitzer/Staat SPXS/US

Große Konstellationen

Loading constellations...